STARLINK-35877

Last updated on Fri Dec 19 2025 00:02:10 GMT+0000 (Coordinated Universal Time)

1 67049U 25294V 25351.83335648 -.01388599 57529-3 -32020-2 0 9999 2 67049 43.0004 151.2501 0001798 278.7397 150.0870 15.96379091 2128
UTC large
Height (km)
Speed (km/s)
/
Latitude / Longitude
Inclination (degrees)
Orbital Period (minutes)
Azimuth
Elevation
Range (km)
Doppler Factor

Next 0 passes for location: London (51.5072 / 0.1276)

Sorry there are no passes over London.